SCP
0 0 0 0 0 0 0 0 0 0 0 0 0 0 0 0 0 0 0 0 0 0 0 0 0 0 0 0 0 0 0 0 0 0 0 0 0 0 0 0 0 0 0
0 0 0 0 0 0 0 0 0 0 0 0 0 0 0 0 0 0 0 0 0 0 0 0 0 0 0 0 0 0 0 0 0 0 0 0 0 0 0 0 0 0 0
0 0 0 0 0 0 0 0 0 0 0 0 0 0 0 0 0 0 0 0 0 0 0 0 0 0 0 0 0 0 0 0 0 0 0 0 0 0 0 0 0 0 0
0 0 0 0 0 0 0 0 0 0 0 0 0 0 0 0 0 0 0 0 0 0 0 0 0 0 0 0 0 0 0 0 0 0 0 0 0 0 0 0 0 0 0
0 0 0 0 0 0 0 0 0 0 0 0 0 0 0 0 0 0 0 0 0 0 0 0 0 0 0 0 0 0 0 0 0 0 0 0 0 0 0 0 0 0 0
0 0 0 0 0 0 0 0 0 0 0 0 0 0 0 0 0 0 0 0 0 0 0 0 0 0 0 0 0 0 0 0 0 0 0 0 0 0 0 0 0 0 0
0 0 0 0 0 0 0 0 0 0 0 0 0 0 0 0 0 0 0 0 0 0 0 0 0 0 0 0 0 0 0 0 0 0 0 0 0 0 0 0 0 0 0
0 0 0 0 0 0 0 0 0 0 0 0 0 0 0 0 0 0 0 0 0 0 0 0 0 0 0 0 0 0 0 0 0 0 0 0 0 0 0 0 0 0 0
0 0 0 0 0 0 0 0 0 0 0 0 0 0 0 0 0 0 0 0 0 0 0 0 0 0 0 0 0 0 0 0 0 0 0 0 0 0 0 0 0 0 0
0 0 0 0 0 0 0 0 0 0 0 0 0 0 0 0 0 0 0 0 0 0 0 0 0 0 0 0 0 0 0 0 0 0 0 0 0 0 0 0 0 0 0
0 0 0 0 0 0 0 0 0 0 0 0 0 0 0 0 0 0 0 0 0 0 0 0 0 0 0 0 0 0 0 0 0 0 0 0 0 0 0 0 0 0 0
0 0 0 0 0 0 0 0 0 0 0 0 0 0 0 0 0 0 0 0 0 0 0 0 0 0 0 0 0 0 0 0 0 0 0 0 0 0 0 0 0 0 0
0 0 0 0 0 0 0 0 0 0 0 0 0 0 0 0 0 0 0 0 0 0 0 0 0 0 0 0 0 0 0 0 0 0 0 0 0 0 0 0 0 0 0
0 0 0 0 0 0 0 0 0 0 0 0 0 0 0 0 0 0 0 0 0 0 0 0 0 0 0 0 0 0 0 0 0 0 0 0 0 0 0 0 0 0 0
0 0 0 0 0 0 0 0 0 0 0 0 0 0 0 0 0 0 0 0 0 0 0 0 0 0 0 0 0 0 0 0 0 0 0 0 0 0 0 0 0 0 0
0 0 0 0 0 0 0 0 0 0 0 0 0 0 0 0 0 0 0 0 0 0 0 0 0 0 0 0 0 0 0 0 0 0 0 0 0 0 0 0 0 0 0
0 0 0 0 0 0 0 0 0 0 0 0 0 0 0 0 0 0 0 0 0 0 0 0 0 0 0 0 0 0 0 0 0 0 0 0 0 0 0 0 0 0 0
0 0 0 0 0 0 0 0 0 0 0 0 0 0 0 0 0 0 0 0 0 0 0 0 0 0 0 0 0 0 0 0 0 0 0 0 0 0 0 0 0 0 0
0 0 0 0 0 0 0 0 0 0 0 0 0 0 0 0 0 0 0 0 0 0 0 0 0 0 0 0 0 0 0 0 0 0 0 0 0 0 0 0 0 0 0
0 0 0 0 0 0 0 0 0 0 0 0 0 0 0 0 0 0 0 0 0 0 0 0 0 0 0 0 0 -0 0 0 0 0 0 0 0 0 0 0 0 0 0
0 0 0 0 0 0 0 0 0 0 0 0 0 0 0 0 0 0 0 0 -0 0 0 0 0 0 0 0 0 -0 -0 0 0 0 0 0 0 0 0 0 0 0 0
0 0 0 0 0 0 0 0 0 0 0 0 0 0 0 0 0 0 0 0 -0 0 0 0 0 0 0 0 0 0 -0 -0 0 0 0 0 0 0 0 0 0 0 0
0 0 0 0 0 0 0 0 0 0 0 0 0 0 0 0 0 0 0 0 0 0 0 0 0 0 0 0 0 0 0 0 0 0 0 0 0 0 0 0 0 0 0
0 0 0 0 0 0 0 0 0 0 0 0 0 0 0 0 0 0 0 0 0 0 0 0 0 0 0 0 0 0 0 0 0 0 0 0 0 0 0 0 0 0 0
0 0 0 0 0 0 0 0 0 0 0 0 0 0 0 0 0 0 0 0 0 0 0 0 0 0 0 0 0 0 0 0 0 0 0 0 0 0 0 0 0 0 0
0 0 0 0 0 0 0 0 0 0 0 0 0 0 0 0 0 0 0 0 0 0 0 0 0 0 0 0 0 0 0 0 0 0 0 0 0 0 0 0 0 0 0
Wind_Speed
5 5 4 5 5 4 4 4 4 3 3 2 2 2 2 2 2 3 4 4 4 3 2 2 2 2 2 1 1 1 1 1 1 1 1 2 3 3 3 3 3 4 4
5 5 4 4 4 4 4 4 4 3 2 2 1 1 2 1 1 2 4 4 4 4 3 3 2 2 2 2 2 1 1 1 1 1 0 0 1 2 3 3 3 3 3
8 6 5 4 3 3 3 3 3 3 3 3 3 3 2 2 2 3 3 4 4 4 4 4 3 2 2 1 1 1 1 0 1 1 0 1 1 0 1 2 3 3 3
7 7 6 5 3 3 3 4 4 4 4 3 3 3 2 1 1 1 2 3 4 4 5 4 3 3 2 1 1 1 1 1 0 1 1 0 1 1 0 1 2 3 4
8 8 7 6 5 4 4 4 5 4 4 3 3 3 3 1 1 1 3 3 4 4 5 4 4 3 2 2 2 2 1 0 0 0 0 0 0 1 1 1 0 1 2
8 7 6 6 5 4 4 4 4 4 3 3 3 3 3 2 2 2 3 3 3 3 5 4 3 3 3 3 2 2 2 1 0 0 0 1 1 1 1 1 1 0 1
8 8 8 7 5 5 4 3 4 3 2 3 3 2 2 2 2 1 1 2 2 2 4 4 3 3 2 2 2 2 2 2 1 1 1 1 1 1 1 1 1 0 0
8 8 8 7 5 4 4 3 4 3 2 3 2 3 3 2 1 1 1 1 1 1 2 3 3 3 4 4 3 2 2 2 2 2 1 1 1 1 1 2 2 1 0
8 8 8 6 5 5 4 4 4 3 3 2 2 3 2 2 1 1 1 1 1 1 2 3 3 4 4 4 3 2 3 2 2 2 2 1 0 0 1 1 2 2 2
8 8 6 6 5 4 4 3 4 3 3 2 2 2 2 2 2 2 2 2 2 2 2 3 3 4 4 4 3 2 2 3 3 2 2 1 0 0 0 1 1 1 2
8 7 6 5 5 4 4 4 3 3 3 2 2 3 2 2 2 2 2 2 2 2 2 2 3 3 4 4 3 3 3 4 4 3 2 2 1 1 0 1 1 1 1
7 7 6 6 5 5 4 4 3 3 2 2 3 2 2 2 3 3 2 2 2 2 2 2 2 3 3 3 4 4 4 4 4 4 3 2 1 2 1 1 1 1 1
7 6 6 6 6 5 4 3 3 2 2 2 3 2 2 2 2 2 2 2 2 2 3 2 2 3 3 3 3 3 3 3 4 3 3 2 1 2 1 1 1 1 1
7 7 6 6 5 5 4 4 3 3 3 3 3 2 1 1 1 2 2 2 2 2 3 3 2 2 3 3 3 3 3 3 4 3 3 3 2 0 0 1 1 2 2
7 8 7 6 6 5 5 4 4 3 3 3 2 1 0 1 1 2 2 2 2 3 3 3 3 3 3 3 3 3 3 3 4 4 4 3 3 1 0 1 1 2 2
7 7 7 7 7 6 6 5 4 3 3 3 2 1 1 1 1 1 2 2 3 3 3 3 3 4 3 5 5 3 2 3 3 4 4 4 4 3 2 2 1 2 3
6 7 7 7 7 6 6 6 5 4 3 2 2 1 1 0 0 1 1 2 2 2 3 3 3 3 4 6 5 4 2 2 3 3 3 3 4 4 2 3 3 2 1
6 6 6 6 5 5 5 5 4 4 3 2 2 1 1 0 0 1 1 1 1 2 2 3 3 3 4 5 4 4 2 2 2 2 3 3 3 3 2 2 2 2 1
5 5 5 5 5 6 6 5 4 4 3 2 2 1 1 1 0 0 1 1 1 2 2 2 3 3 5 5 4 3 2 2 3 3 3 2 2 3 2 2 2 2 2
5 5 5 5 5 5 6 6 4 3 3 3 2 2 1 2 2 1 1 1 1 2 2 3 3 3 4 5 5 3 1 1 2 3 3 4 3 3 2 1 0 1 2
5 6 6 5 5 5 6 5 4 4 3 2 2 1 1 1 2 1 0 1 1 2 2 3 4 3 3 4 5 3 0 1 2 2 3 3 4 3 2 1 1 2 2
5 5 5 4 3 5 6 5 4 3 2 2 2 1 1 1 1 1 0 1 1 1 3 3 4 3 3 3 4 4 2 1 1 2 2 3 4 4 3 2 2 2 1
5 5 5 4 3 3 5 5 4 3 3 3 2 1 0 0 0 1 1 1 1 1 2 2 3 4 3 3 4 4 4 3 1 2 4 4 5 4 3 3 3 2 1
5 5 5 5 3 3 3 4 3 3 4 3 2 1 1 0 1 1 1 1 2 2 2 3 3 4 4 3 3 2 2 3 2 2 3 4 4 2 3 3 2 1 2
4 5 5 5 4 3 3 3 3 4 3 2 1 1 1 1 1 2 2 3 4 4 4 4 3 3 4 4 5 3 2 2 2 2 2 2 2 3 3 2 2 2 1
4 5 4 4 4 3 3 3 3 4 4 2 1 1 1 1 1 2 3 4 5 7 9 9 7 5 8 8 8 7 6 6 4 1 2 3 3 3 4 4 4 3 3
Wind_Direction
135 121 113 112 101 89 85 80 84 73 81 82 83 77 59 28 24 22 19 18 17 16 26 17 19 16 17 7 23 45 49 43 56 68 53 45 48 51 40 39 47 47 43
140 128 116 104 107 105 96 85 84 80 76 82 88 95 96 58 35 11 15 16 15 16 27 24 16 12 21 28 28 44 43 16 25 49 88 12 22 38 33 39 48 43 41
163 153 134 121 108 103 95 86 73 69 67 75 86 77 57 39 23 12 4 0 14 20 19 18 16 18 32 28 13 29 70 74 335 9 135 172 216 99 25 43 49 46 46
160 150 141 136 130 109 87 80 74 70 66 73 92 100 97 83 10 348 353 355 16 21 21 20 20 19 22 24 7 31 32 103 321 332 333 217 169 174 147 23 45 52 48
157 152 149 145 129 107 97 90 84 72 66 69 86 96 94 96 60 28 26 15 11 19 20 21 23 18 15 17 17 12 23 48 180 255 303 345 54 135 168 196 94 43 41
152 142 133 127 114 105 101 95 93 78 72 80 82 93 101 93 73 40 27 14 4 3 9 18 24 18 11 9 8 5 7 354 341 300 245 211 188 184 175 185 193 174 31
155 148 145 139 136 134 130 118 104 86 75 91 93 95 96 89 82 54 29 19 4 353 349 5 12 9 4 6 10 16 6 354 343 310 269 236 227 201 173 164 155 155 116
156 153 149 147 150 144 131 121 112 94 77 80 82 82 83 81 62 46 38 8 341 321 336 357 10 9 10 15 17 17 359 359 349 334 299 252 246 207 189 174 158 154 153
155 150 148 149 150 144 135 131 119 102 89 80 77 76 79 81 61 32 25 6 347 345 6 17 17 14 15 15 17 16 356 355 350 337 326 302 281 203 212 185 173 170 178
147 146 148 146 145 141 129 116 113 113 101 89 83 89 71 62 50 41 23 10 360 8 23 22 21 19 16 15 19 4 350 8 352 336 358 9 342 77 142 170 173 178 161
157 153 149 143 139 130 124 118 114 109 103 98 89 74 52 39 37 36 17 7 5 9 17 14 23 18 14 11 16 6 2 7 356 356 9 9 14 65 71 126 130 127 136
152 146 142 139 140 141 137 135 132 127 126 114 95 74 54 46 40 27 9 13 14 6 8 12 23 17 14 14 15 12 10 4 355 352 1 4 32 56 61 103 123 134 143
143 137 140 149 155 154 148 144 141 139 127 114 100 77 57 52 38 16 3 11 13 5 8 15 16 7 5 9 9 10 8 1 351 350 0 357 25 48 55 87 102 119 122
151 151 156 162 160 159 157 153 151 146 135 123 115 103 72 54 38 22 17 13 11 4 0 1 357 353 1 5 360 2 360 356 357 1 5 6 18 32 93 103 113 120 117
166 168 168 169 165 162 160 158 156 154 145 133 133 144 102 59 48 32 15 11 15 13 6 5 357 350 357 352 351 354 356 360 6 7 3 4 19 32 85 134 149 137 132
175 173 174 173 172 169 166 160 159 160 151 150 163 165 119 66 37 11 8 17 14 11 12 3 354 351 350 347 351 355 356 8 13 2 354 357 12 13 41 62 114 170 172
168 173 180 179 178 173 165 165 164 157 154 157 160 165 151 127 329 4 25 14 1 4 359 349 350 345 337 344 349 351 4 17 12 1 354 358 4 14 36 42 46 43 192
169 175 177 172 164 154 151 153 150 152 155 158 172 178 167 170 18 36 20 353 345 348 343 335 337 339 336 345 349 356 19 22 7 359 353 348 345 4 29 45 39 22 4
162 162 157 148 146 150 152 145 146 148 154 173 189 198 186 182 164 358 336 333 340 337 331 324 334 336 329 341 351 6 21 13 354 349 351 346 344 351 20 49 34 8 351
139 138 135 130 140 150 143 141 149 157 180 197 204 198 182 182 199 231 288 316 321 314 321 329 332 325 318 328 341 360 28 356 335 338 343 350 351 348 358 15 42 340 320
134 135 136 141 155 150 141 146 156 184 201 191 180 170 171 185 197 209 258 303 332 337 335 328 324 323 314 317 329 344 3 287 316 328 331 331 344 346 337 304 249 245 253
128 134 138 145 150 147 145 152 177 190 164 152 156 163 174 199 165 167 300 329 350 337 329 327 323 321 321 319 316 327 320 258 266 291 300 306 324 331 327 307 272 255 243
137 136 140 141 142 154 157 167 188 166 146 140 152 161 125 33 165 189 249 307 307 295 300 305 306 310 316 314 312 317 320 305 256 277 290 302 313 318 319 301 289 280 227
140 136 136 142 152 166 172 181 178 157 149 156 170 169 156 316 320 267 232 239 255 265 275 281 286 295 303 303 304 310 318 321 310 306 309 312 310 305 291 300 305 274 230
138 142 149 156 169 172 177 179 166 151 151 159 173 185 200 232 282 286 251 240 240 228 235 256 256 266 284 283 274 268 281 286 295 308 317 324 325 328 321 312 298 279 248
141 144 151 158 170 171 178 184 169 159 157 167 194 216 237 258 270 292 306 270 248 259 246 241 241 250 251 272 286 278 274 281 289 275 287 293 294 293 294 299 302 291 273